Leadville, CO

8:25 PM MDT on October 19, 2017 (GMT -0600)
Lake County

Weather History for KLXV - April, 2013

Change the Weather History Date:

Tuesday, April 23, 2013

  Actual Average Record
Temperature  
Mean Temperature 16 °F -  
Max Temperature 26 °F 46 °F 63 °F (1989)
Min Temperature 5 °F 21 °F 5 °F (2013)
Degree Days  
Heating Degree Days 49 32  
Month to date heating degree days 900 804  
Since 1 July heating degree days 9752 9787  
Cooling Degree Days 0 0  
Month to date cooling degree days 0 0  
Year to date cooling degree days 0 0  
Moisture  
Dew Point 13 °F    
Average Humidity 69    
Maximum Humidity 96    
Minimum Humidity 42    
Precipitation  
Precipitation 0.16 in 0.03 in 0.42 in (2011)
Month to date precipitation 2.38 0.82  
Year to date precipitation 5.51 3.08  
Sea Level Pressure  
Sea Level Pressure 29.97 in    
Wind  
Wind Speed 8 mph (WSW)    
Max Wind Speed 23 mph    
Max Gust Speed 31 mph    
Visibility 4 miles    
Events Fog , Snow    
T = Trace of Precipitation, MM = Missing Value Source: NWS Daily Summary

Daily Weather History Graph

Daily Weather History Graph

Search for Another Location

Airport or City:

Trip Planner

Search our weather history database for the weather conditions in past years. The results will help you decide how hot, cold, wet, or windy it might be!

Date:

Astronomy

Apr. 23, 2013 Rise Set
Actual Time 6:16 AM MDT 7:50 PM MDT
Civil Twilight 5:48 AM MDT 8:19 PM MDT
Nautical Twilight 5:14 AM MDT 8:53 PM MDT
Astronomical Twilight 4:38 AM MDT 9:29 PM MDT
Moon 5:49 PM MDT (4/23) 4:45 AM MDT (4/23)
Length of Visible Light 14h 30m
Length of Day
13h 34m
Waxing Gibbous, 94% of the Moon is Illuminated
Apr 23
Waxing Gibbous
Apr 25
Full
May 2
Last Quarter
May 9
New
May 17
First Quarter

Hourly Weather History & Observations

Time (MDT) Temp. Windchill Dew Point Humidity Pressure Visibility Wind Dir Wind Speed Gust Speed Precip Events Conditions
12:01 AM 21.2 °F 8.3 °F 21.2 °F 100% 29.99 in 1.0 mi South 13.8 mph - 0.00 in Snow Light Snow
12:49 AM 19.4 °F 5.0 °F 17.6 °F 93% 29.98 in 0.8 mi South 16.1 mph - 0.02 in Snow Light Snow
12:53 AM 19.0 °F 4.5 °F 18.0 °F 96% 29.86 in 0.8 mi South 16.1 mph - 0.02 in Snow Light Snow
1:53 AM 17.1 °F 1.0 °F 15.1 °F 92% 29.86 in 1.0 mi South 18.4 mph 23.0 mph 0.03 in Snow Light Snow
2:01 AM 17.6 °F 1.7 °F 15.8 °F 93% 29.95 in 1.0 mi South 18.4 mph - 0.00 in Snow Light Snow
2:06 AM 17.6 °F 2.7 °F 15.8 °F 93% 29.95 in 0.8 mi South 16.1 mph - 0.00 in Snow Light Snow
2:16 AM 17.6 °F 5.0 °F 15.8 °F 93% 29.96 in 1.0 mi South 11.5 mph - 0.01 in   Mist
2:28 AM 15.8 °F 1.4 °F 15.8 °F 100% 29.97 in 2.0 mi South 13.8 mph - 0.01 in Snow Light Snow
2:37 AM 15.8 °F 2.1 °F 15.8 °F 100% 29.97 in 1.8 mi South 12.7 mph - 0.01 in Snow Light Snow
2:53 AM 16.0 °F 2.3 °F 14.0 °F 92% 29.84 in 1.2 mi South 12.7 mph - 0.01 in Snow Light Snow
3:03 AM 15.8 °F 2.7 °F 14.0 °F 93% 29.96 in 1.0 mi South 11.5 mph - 0.01 in Snow Light Snow
3:14 AM 15.8 °F 5.1 °F 14.0 °F 93% 29.95 in 1.5 mi SE 8.1 mph - 0.01 in Snow Light Snow
3:34 AM 15.8 °F 5.1 °F 14.0 °F 93% 29.96 in 2.5 mi South 8.1 mph - 0.01 in Snow Light Snow
3:53 AM 16.0 °F 4.4 °F 12.9 °F 88% 29.83 in 1.8 mi SSE 9.2 mph - 0.03 in Snow Light Snow
4:42 AM 15.8 °F 3.4 °F 12.2 °F 86% 29.94 in 2.0 mi SSE 10.4 mph - 0.00 in Snow Light Snow
4:46 AM 14.0 °F 2.0 °F 12.2 °F 93% 29.94 in 1.8 mi South 9.2 mph - 0.00 in Snow Light Snow
4:53 AM 14.0 °F 1.2 °F 12.0 °F 92% 29.83 in 1.5 mi South 10.4 mph - 0.00 in Snow Light Snow
5:53 AM 14.0 °F 0.5 °F 12.0 °F 92% 29.81 in 1.5 mi South 11.5 mph 17.3 mph 0.01 in Snow Light Snow
6:20 AM 12.2 °F -1.8 °F 10.4 °F 92% 29.93 in 1.0 mi South 11.5 mph - 0.01 in Snow Light Snow
6:32 AM 12.2 °F -2.5 °F 10.4 °F 92% 29.93 in 0.8 mi South 12.7 mph - 0.02 in Snow Light Snow
6:53 AM 12.9 °F 1.6 °F 10.9 °F 92% 29.83 in 0.5 mi South 8.1 mph - 0.04 in Fog , Snow Snow
7:01 AM 12.2 °F -1.0 °F 10.4 °F 92% 29.93 in 0.8 mi South 10.4 mph - 0.00 in Snow Light Snow
7:11 AM 12.2 °F -1.8 °F 10.4 °F 92% 29.94 in 1.2 mi SSW 11.5 mph - 0.00 in Snow Light Snow
7:53 AM 12.9 °F -0.2 °F 10.0 °F 88% 29.87 in 1.0 mi South 10.4 mph - 0.00 in Snow Light Snow
8:00 AM 12.2 °F -0.2 °F 10.4 °F 92% 29.96 in 0.5 mi South 9.2 mph - 0.01 in Fog , Snow Snow
8:29 AM 12.2 °F 1.7 °F 10.4 °F 92% 29.96 in 0.5 mi South 6.9 mph - 0.02 in Fog , Snow Snow
8:39 AM 12.2 °F 1.7 °F 10.4 °F 92% 29.96 in 0.8 mi South 6.9 mph - 0.02 in Snow Light Snow
8:46 AM 12.2 °F 2.9 °F 10.4 °F 92% 29.96 in 1.8 mi South 5.8 mph - 0.02 in Snow Light Snow
8:53 AM 14.0 °F 6.5 °F 12.0 °F 92% 29.89 in 3.0 mi South 4.6 mph - 0.02 in Snow Light Snow
9:06 AM 14.0 °F 6.5 °F 12.2 °F 93% 29.96 in 5.0 mi South 4.6 mph - 0.01 in   Overcast
9:28 AM 15.8 °F - 12.2 °F 86% 29.97 in 3.0 mi Calm Calm - 0.01 in Snow Light Snow
9:33 AM 15.8 °F 8.6 °F 12.2 °F 86% 29.97 in 1.8 mi South 4.6 mph - 0.01 in Snow Light Snow
9:53 AM 17.1 °F 11.7 °F 15.1 °F 92% 29.89 in 2.5 mi SSW 3.5 mph - 0.01 in Snow Light Snow
10:03 AM 21.2 °F 16.4 °F 14.0 °F 74% 29.96 in 3.0 mi WNW 3.5 mph - 0.00 in   Haze
10:19 AM 21.2 °F 13.6 °F 15.8 °F 80% 29.97 in 1.8 mi NNW 5.8 mph - 0.00 in Snow Light Snow
10:29 AM 21.2 °F 13.6 °F 15.8 °F 80% 29.97 in 0.8 mi NNW 5.8 mph - 0.00 in Snow Light Snow
10:33 AM 21.2 °F 12.6 °F 15.8 °F 80% 29.97 in 1.0 mi NNW 6.9 mph - 0.00 in Snow Light Snow
10:45 AM 21.2 °F 10.1 °F 15.8 °F 80% 29.97 in 0.8 mi NW 10.4 mph - 0.00 in Snow Light Snow
10:49 AM 21.2 °F 10.9 °F 15.8 °F 80% 29.97 in 1.0 mi NW 9.2 mph - 0.00 in Snow Light Snow
10:53 AM 23.0 °F 13.9 °F 16.0 °F 74% 29.86 in 1.0 mi NW 8.1 mph - 0.00 in Snow Light Snow
11:26 AM 23.0 °F 12.4 °F 15.8 °F 74% 29.98 in 2.0 mi NNW 10.4 mph - 0.00 in Snow Light Snow
11:36 AM 24.8 °F 16.9 °F 15.8 °F 69% 29.98 in 9.0 mi North 6.9 mph - 0.00 in Snow Light Snow
11:46 AM 23.0 °F 12.4 °F 12.2 °F 63% 29.97 in 9.0 mi WNW 10.4 mph 16.1 mph 0.00 in   Overcast
11:53 AM 21.9 °F 13.4 °F 12.9 °F 68% 29.88 in 5.0 mi WNW 6.9 mph - 0.00 in Snow Light Snow
11:58 AM 23.0 °F 12.4 °F 15.8 °F 74% 29.98 in 1.8 mi NNW 10.4 mph 17.3 mph 0.00 in Snow Light Snow
12:03 PM 21.2 °F 8.9 °F 15.8 °F 80% 29.98 in 0.8 mi NNW 12.7 mph 18.4 mph 0.00 in Snow Light Snow
12:11 PM 21.2 °F 10.9 °F 15.8 °F 80% 29.98 in 0.8 mi North 9.2 mph - 0.01 in Snow Light Snow
12:14 PM 23.0 °F 13.1 °F 15.8 °F 74% 29.98 in 1.0 mi NNW 9.2 mph - 0.01 in Snow Light Snow
12:19 PM 23.0 °F 13.1 °F 14.0 °F 68% 29.98 in 3.0 mi NNW 9.2 mph - 0.01 in Snow Light Snow
12:40 PM 21.2 °F 8.3 °F 15.8 °F 80% 29.98 in 1.8 mi NNW 13.8 mph 20.7 mph 0.01 in Snow Light Snow
12:53 PM 21.0 °F 9.9 °F 14.0 °F 74% 29.94 in 1.5 mi NNW 10.4 mph - 0.01 in Snow Light Snow
12:57 PM 21.2 °F 8.9 °F 12.2 °F 68% 29.98 in 3.0 mi North 12.7 mph - 0.00 in Snow Light Snow
1:12 PM 21.2 °F 10.9 °F 14.0 °F 74% 29.98 in 1.8 mi NW 9.2 mph - 0.00 in Snow Light Snow
1:23 PM 24.8 °F 16.1 °F 12.2 °F 59% 29.98 in 4.0 mi NNW 8.1 mph - 0.00 in Snow Light Snow
1:49 PM 23.0 °F 13.9 °F 10.4 °F 59% 29.98 in 9.0 mi NW 8.1 mph - 0.00 in   Overcast
1:53 PM 23.0 °F 13.9 °F 10.9 °F 60% 29.94 in 9.0 mi WNW 8.1 mph - 0.00 in   Overcast
2:53 PM 23.0 °F 12.4 °F 7.0 °F 50% 29.95 in 9.0 mi WNW 10.4 mph 19.6 mph 0.00 in   Mostly Cloudy
3:53 PM 24.1 °F 12.0 °F 5.0 °F 44% 29.95 in 9.0 mi West 13.8 mph 27.6 mph N/A   Overcast
4:53 PM 24.1 °F 12.0 °F 9.0 °F 53% 29.97 in 10.0 mi NW 13.8 mph 27.6 mph N/A   Scattered Clouds
5:53 PM 21.9 °F 9.2 °F 7.0 °F 53% 30.01 in 10.0 mi NNW 13.8 mph 20.7 mph N/A   Scattered Clouds
6:53 PM 19.9 °F 7.3 °F 9.0 °F 62% 30.05 in 10.0 mi WNW 12.7 mph 20.7 mph N/A   Mostly Cloudy
7:27 PM 17.6 °F 7.3 °F 12.2 °F 79% 30.07 in 2.5 mi NNW 8.1 mph - 0.00 in Snow Light Snow
7:41 PM 17.6 °F 12.3 °F 12.2 °F 79% 30.08 in 4.0 mi Variable 3.5 mph - 0.00 in Snow Light Snow
7:53 PM 18.0 °F 9.8 °F 14.0 °F 84% 30.10 in 2.5 mi North 5.8 mph - 0.00 in Snow Light Snow
8:10 PM 17.6 °F 12.3 °F 12.2 °F 79% 30.09 in 5.0 mi NNE 3.5 mph - 0.00 in Snow Light Snow
8:26 PM 17.6 °F 10.7 °F 12.2 °F 79% 30.10 in 10.0 mi NNE 4.6 mph - 0.00 in   Overcast
8:53 PM 17.1 °F 10.0 °F 8.1 °F 68% 30.12 in 10.0 mi Variable 4.6 mph - 0.00 in   Overcast
9:10 PM 15.8 °F 6.1 °F 8.6 °F 73% 30.11 in 10.0 mi ENE 6.9 mph - N/A   Mostly Cloudy
9:20 PM 14.0 °F 6.5 °F 8.6 °F 79% 30.11 in 10.0 mi ENE 4.6 mph - N/A   Scattered Clouds
9:53 PM 12.0 °F 2.7 °F 6.1 °F 77% 30.17 in 10.0 mi ENE 5.8 mph - N/A   Clear
10:53 PM 9.0 °F 2.4 °F 3.9 °F 80% 30.16 in 10.0 mi North 3.5 mph - N/A   Clear
11:53 PM 6.1 °F -2.8 °F 1.0 °F 80% 30.19 in 10.0 mi NNW 4.6 mph - N/A   Clear